Location: Frankfurt+(oder)
(51.7984°N, 12.2168°E)
Time: 10:45:09
(UTC+01:00)

ISS - Pass Details

Date: 12 January 2018
Orbit: 402 x 406 km, 51.6° (Epoch: 16 January)

Event Time Altitude Azimuth Distance (km) Brightness Sun altitude
Exits shadow 06:24:51 25° 230° (SW) 861 -2.5 -16.0°
Maximum altitude 06:25:26 27° 211° (SSW) 824 -2.5 -15.9°
Drops below altitude 10° 06:28:15 10° 152° (SSE) 1,461 -0.4 -15.5°
Sets 06:30:30 0° 139° (SE) 2,318 1.0 -15.2°
